User: anonymous   Login
Location: S�tio Afonso Gruber
(26.1760°S, 49.5250°W)
Time: 17:27:51
(UTC+00:00)
Language:

Cosmos 2016 Rocket - Orbit

View from above orbital plane
View from above orbital plane
View from above satellite
View from above satellite

Ground track
Ground track

The orbit data is extracted from the following two-line orbital elements,

1 19922U 89028B   20227.52996755 +.00000058 +00000-0 +43616-4 0  9998
2 19922 082.9586 290.4391 0035193 251.4220 108.3114 13.77220114575865
Epoch (UTC): 14 August 2020 12:43:09
Eccentricity: 0.0035193
inclination: 82.9586°
perigee height: 948 km
apogee height: 999 km
right ascension of ascending node: 290.4391°
argument of perigee: 251.4220°
revolutions per day: 13.77220114
mean anomaly at epoch: 108.3114°
orbit number at epoch: 57586

The dashed part of the orbit path shows where the satellite is in the earth's shadow,  

DLR